[[{"header":{"parameterUnit":"m.s-1","parameterCategory":1,"la1":30.2991,"la2":30.254,"lo1":-89.0895,"lo2":-89.0444,"dy":0.0017,"dx":0.0017,"nx":28,"ny":28,"refTime":"2024-06-12T03:00:00:Z","depth":0,"parameterNumber":2,"parameterNumberName":"U-component_of_WINDS"},"data":[0,0,0,0,0,0,0,0,0,0,0,0,0,0,0,0,0,0,0,0,0,0,0,0,0,0,0,0,0,0,0,0,0,0,0,0,0,0,0,0,0,0,0,0,0,0,0,0,0,0,0,0,0,0,0,0,0,0,1.3837,1.3838,0,1.4011,1.4013,1.4015,1.4029,1.4027,1.4026,1.4024,1.4205,1.4212,1.4218,0,0,0,0,0,0,0,0,0,0,0,0,0,1.3517,1.3523,1.3836,1.3839,1.3841,1.4011,1.4013,1.4015,1.403,1.4027,1.4025,1.4023,1.4203,1.4211,1.4219,0,0,0,0,0,0,0,0,0,0,0,0,0,1.367,1.3525,1.3836,1.3868,1.3873,1.401,1.4013,1.4016,1.403,1.4027,1.4024,1.4022,1.4201,1.421,1.422,1.4338,0,0,1.425,1.4255,0,0,0,0,0,0,0,0,1.3662,1.3682,1.3861,1.3866,1.3872,1.3995,1.3967,1.4124,1.4031,1.3971,1.4024,1.402,1.4138,1.4153,1.4192,1.4346,1.4354,1.4251,1.4257,1.4261,1.4264,0,0,0,0,0,0,0,1.3651,1.3675,1.3906,1.3864,1.387,1.3875,1.3893,1.3997,1.4068,1.3976,1.3977,1.3997,1.414,1.4182,1.4196,1.4357,1.4251,1.426,1.4266,1.427,1.4614,1.4617,0,0,0,0,0,0,1.3634,1.3666,1.39,1.3911,1.3757,1.3883,1.3903,1.3959,1.4067,1.4081,1.4,1.3997,1.4167,1.4185,1.4203,1.4346,1.4261,1.4271,1.4276,1.4611,1.4615,1.4619,0,0,0,0,0,0,1.3627,1.3655,1.3893,1.3789,1.3819,1.3891,1.3953,1.3964,1.4005,1.4085,1.4098,1.4029,1.4165,1.4189,1.4303,1.4352,1.4275,1.4284,1.4607,1.4612,1.4617,1.4634,0,0,0,0,0,0,1.3618,1.3652,1.3697,1.379,1.3825,1.399,1.3956,1.3969,1.4022,1.4021,1.4116,1.413,1.4165,1.4288,1.4313,1.4365,1.4292,1.4603,1.461,1.4615,1.463,1.4639,1.4647,0,0,0,0,0,1.3606,1.3697,1.37,1.3728,1.3883,1.3993,1.4013,1.4051,1.4026,1.4072,1.4123,1.4127,1.4343,1.43,1.4328,1.4383,1.46,1.4608,1.4615,1.4626,1.4637,1.4647,0,0,0,0,0,0,1.361,1.3709,1.3714,1.3836,1.3906,1.3995,1.4055,1.4063,1.4142,1.4137,1.4182,1.4203,1.4316,1.4362,1.4312,1.4502,1.4469,1.4482,1.4468,1.448,1.4488,1.4474,1.43,0,0,0,0,0,1.3624,1.3705,1.3788,1.3888,1.3923,1.3982,1.4032,1.4055,1.4129,1.4159,1.4219,1.4291,1.4376,1.443,1.4513,1.4636,1.4657,1.4688,1.4697,1.4704,1.4714,1.4781,1.4795,1.4642,1.4642,1.4642,0,0,1.3656,1.3721,1.3769,1.389,1.3947,1.4029,1.4007,1.4096,1.4158,1.4173,1.4284,1.433,1.4414,1.4533,1.4589,1.4575,1.4761,1.4713,1.4718,1.4725,1.479,1.4804,1.4817,1.4647,1.4646,1.4646,0,0,1.3756,1.3813,1.3901,1.3958,1.4044,1.4083,1.4104,1.4192,1.4223,1.4334,1.4347,1.4421,1.4566,1.4625,1.4674,1.4793,1.4799,1.4819,1.4865,1.4929,1.4941,1.4952,1.4993,1.5007,1.483,1.483,1.483,0,1.3784,1.3908,1.3946,1.4034,1.4087,1.4103,1.4193,1.4246,1.4355,1.4391,1.4373,1.4553,1.4612,1.4743,1.4772,1.4812,1.4837,1.4808,1.4936,1.4948,1.4958,1.4998,1.5013,1.4831,1.4831,1.4831,1.4831,0,1.3939,1.4025,1.4086,1.4188,1.4248,1.4336,1.4387,1.4443,1.4461,1.4502,1.4615,1.4684,1.478,1.4813,1.4832,1.4948,1.4936,1.4927,1.4895,1.4974,1.5012,1.5027,1.4834,1.4833,1.4833,1.4832,0,0,1.4045,1.4166,1.4188,1.4233,1.4328,1.4396,1.4485,1.4577,1.4623,1.4697,1.4772,1.4893,1.4885,1.494,1.4966,1.5023,1.511,1.5007,1.5009,1.5022,1.524,1.5244,1.5261,1.5115,1.5118,1.5121,1.5232,0,1.4153,1.4311,1.4347,1.4482,1.4561,1.4577,1.4655,1.4721,1.4761,1.4835,1.488,1.4964,1.4948,1.4981,1.5038,1.5087,1.5154,1.508,1.5185,1.5188,1.5161,1.5281,1.5287,1.5389,1.5247,1.525,1.5252,0,1.4301,1.4376,1.4519,1.4602,1.4636,1.4705,1.4791,1.4861,1.4937,1.4962,1.5023,1.5042,1.5135,1.5098,1.5226,1.5175,1.522,1.5251,1.5256,1.5266,1.5223,1.5293,1.5423,1.5437,1.5276,1.5274,1.5272,0,1.4362,1.4499,1.4602,1.4641,1.4741,1.4788,1.4832,1.4905,1.4957,1.5033,1.5067,1.5153,1.52,1.5266,1.5308,1.5278,1.5432,1.54,1.5455,1.5454,1.5485,1.5483,1.5622,1.5517,1.5517,1.5517,1.5516,0,1.4478,1.4564,1.463,1.4693,1.4789,1.483,1.4925,1.4969,1.5033,1.5105,1.5125,1.5192,1.5244,1.5318,1.5352,1.5451,1.5473,1.5496,1.5503,1.5493,1.549,1.5522,1.5515,1.5521,1.552,1.5519,1.5518,0,1.4562,1.4609,1.4722,1.4806,1.4829,1.4897,1.4969,1.5031,1.5071,1.5161,1.5185,1.5249,1.5336,1.5385,1.5496,1.5519,1.5629,1.5634,1.5603,1.5606,1.5657,1.5651,1.5821,1.5844,1.5725,1.5727,1.5727,0,1.4632,1.4698,1.4789,1.4838,1.4882,1.4961,1.5014,1.5057,1.5111,1.5201,1.5252,1.534,1.5413,1.5553,1.561,1.5694,1.57,1.5754,1.5713,1.57,1.5698,1.5693,1.5699,1.576,1.5761,1.5762,1.5763,0,1.4751,1.477,1.4846,1.4929,1.4991,1.5059,1.5127,1.5166,1.5219,1.528,1.5369,1.5425,1.5537,1.5625,1.5714,1.5759,1.577,1.5776,1.5792,1.5782,1.576,1.577,1.562,1.5771,1.577,1.577,1.5769,1.5769,1.4828,1.4887,1.496,1.5043,1.5097,1.5159,1.5221,1.5268,1.5343,1.5436,1.5458,1.5551,1.5624,1.5744,1.5792,1.5866,1.5855,1.588,1.5886,1.5891,1.5892,1.5749,1.5882,1.5882,1.5882,1.5882,1.5882,0,1.4946,1.4993,1.5069,1.5162,1.5227,1.5231,1.5305,1.5359,1.5441,1.5507,1.5578,1.568,1.5764,1.5827,1.5913,1.596,1.5967,1.5981,1.5977,1.5987,1.5897,1.5873,1.5974,1.5974,1.5974,1.5974,1.5974,1.5974,1.5015,1.5114,1.5142,1.5268,1.5316,1.5407,1.5448,1.5505,1.5558,1.5671,1.574,1.578,1.5845,1.5936,1.6013,1.6029,1.6059,1.6072,1.6089,1.6004,1.5994,1.5984,1.5962,1.6079,1.6079,1.6172,1.6173,1.6174]},{"header":{"parameterUnit":"m.s-1","parameterCategory":1,"la1":30.2991,"la2":30.254,"lo1":-89.0895,"lo2":-89.0444,"dy":0.0017,"dx":0.0017,"nx":28,"ny":28,"refTime":"2024-06-12T03:00:00:Z","depth":0,"parameterNumber":3,"parameterNumberName":"V-component_of_WINDS"},"data":[0,0,0,0,0,0,0,0,0,0,0,0,0,0,0,0,0,0,0,0,0,0,0,0,0,0,0,0,0,0,0,0,0,0,0,0,0,0,0,0,0,0,0,0,0,0,0,0,0,0,0,0,0,0,0,0,0,0,1.8452,1.8451,0,1.8433,1.8433,1.8433,1.8395,1.8395,1.8394,1.8393,1.8372,1.8372,1.8373,0,0,0,0,0,0,0,0,0,0,0,0,0,1.8449,1.845,1.8452,1.8451,1.8451,1.8433,1.8433,1.8433,1.8395,1.8395,1.8394,1.8393,1.8372,1.8372,1.8373,0,0,0,0,0,0,0,0,0,0,0,0,0,1.8443,1.845,1.8452,1.843,1.8428,1.8433,1.8433,1.8433,1.8396,1.8395,1.8393,1.8392,1.8372,1.8372,1.8373,1.8396,0,0,1.8373,1.8373,0,0,0,0,0,0,0,0,1.8443,1.8443,1.8434,1.8432,1.843,1.8415,1.8424,1.842,1.8396,1.8408,1.8393,1.8392,1.8387,1.8386,1.8385,1.8395,1.8394,1.8373,1.8373,1.8373,1.8373,0,0,0,0,0,0,0,1.8444,1.8443,1.8444,1.8434,1.8431,1.842,1.8418,1.8423,1.8404,1.8407,1.8404,1.8403,1.8386,1.8385,1.8384,1.8394,1.8373,1.8373,1.8373,1.8374,1.8416,1.8417,0,0,0,0,0,0,1.8448,1.8444,1.8445,1.8444,1.8434,1.8421,1.8419,1.8421,1.8404,1.84,1.8404,1.8401,1.8385,1.8384,1.8384,1.8406,1.8373,1.8374,1.8374,1.8415,1.8416,1.8417,0,0,0,0,0,0,1.8448,1.8448,1.8445,1.8443,1.8442,1.8422,1.8425,1.8421,1.842,1.8401,1.8397,1.8406,1.8384,1.8383,1.8392,1.8405,1.8374,1.8374,1.8414,1.8415,1.8417,1.8454,0,0,0,0,0,0,1.8448,1.8448,1.8459,1.8444,1.8442,1.8456,1.8426,1.8422,1.8421,1.8417,1.8403,1.84,1.8383,1.8392,1.8392,1.8405,1.8374,1.8412,1.8414,1.8416,1.8451,1.8456,1.8461,0,0,0,0,0,1.8448,1.847,1.8459,1.846,1.8455,1.8457,1.8456,1.8438,1.8422,1.8431,1.8418,1.84,1.8404,1.8393,1.8393,1.8406,1.8412,1.8414,1.8416,1.8449,1.8455,1.8461,0,0,0,0,0,0,1.8488,1.8468,1.8456,1.8474,1.8467,1.8451,1.8462,1.8445,1.8443,1.8439,1.8416,1.8412,1.8423,1.8416,1.8404,1.8425,1.8404,1.8407,1.843,1.8435,1.844,1.8441,1.8374,0,0,0,0,0,1.8499,1.8504,1.8486,1.8504,1.8501,1.8482,1.8482,1.8468,1.846,1.8457,1.8445,1.8437,1.8435,1.8435,1.8433,1.845,1.8444,1.8458,1.8463,1.8467,1.8469,1.8473,1.8478,1.8425,1.8425,1.8425,0,0,1.8522,1.8511,1.8516,1.8511,1.8504,1.8507,1.848,1.8486,1.8487,1.8458,1.8464,1.8455,1.8444,1.8455,1.846,1.8449,1.8482,1.847,1.8473,1.8473,1.8476,1.8481,1.8485,1.8426,1.8426,1.8426,0,0,1.8564,1.8558,1.857,1.8563,1.8553,1.854,1.8542,1.8527,1.852,1.8526,1.8503,1.8503,1.8503,1.8495,1.849,1.8525,1.8507,1.8525,1.8549,1.8553,1.8558,1.8561,1.857,1.8574,1.8527,1.8527,1.8527,0,1.8593,1.8599,1.8579,1.8585,1.8582,1.8555,1.8565,1.8559,1.8548,1.8546,1.8534,1.853,1.8521,1.8528,1.8536,1.8535,1.8535,1.8526,1.8559,1.8562,1.8565,1.8573,1.8577,1.8529,1.8529,1.8529,1.8529,0,1.8633,1.8637,1.8648,1.8637,1.8635,1.8644,1.8623,1.8623,1.8608,1.8595,1.86,1.8587,1.8581,1.8582,1.8568,1.8586,1.8579,1.8564,1.8542,1.8573,1.858,1.8583,1.8532,1.8532,1.8531,1.8531,0,0,1.8702,1.8678,1.8682,1.8675,1.8659,1.8661,1.8666,1.8659,1.8658,1.8651,1.8653,1.8651,1.8636,1.8631,1.8615,1.8619,1.8643,1.8603,1.8602,1.8608,1.8657,1.8668,1.8672,1.8631,1.8632,1.8632,1.8657,0,1.8739,1.8747,1.8728,1.874,1.8741,1.8714,1.8718,1.8707,1.8695,1.8692,1.8677,1.8675,1.8657,1.8653,1.8655,1.864,1.8652,1.8638,1.863,1.863,1.8632,1.8676,1.8688,1.8713,1.866,1.8661,1.8661,0,1.8784,1.8777,1.879,1.877,1.8769,1.8774,1.8763,1.8762,1.8749,1.8739,1.8731,1.8713,1.8714,1.8694,1.8693,1.8684,1.8679,1.867,1.8671,1.8668,1.8646,1.8672,1.872,1.8723,1.8666,1.8666,1.8665,0,1.8828,1.8823,1.8828,1.8824,1.8802,1.8804,1.8795,1.8781,1.8776,1.8767,1.8763,1.8755,1.8749,1.8742,1.872,1.8708,1.872,1.87,1.871,1.871,1.8713,1.8713,1.8758,1.8713,1.8713,1.8713,1.8713,0,1.887,1.8878,1.8847,1.8851,1.8857,1.8834,1.8841,1.8828,1.8815,1.8813,1.879,1.8788,1.8761,1.8756,1.8739,1.8738,1.8737,1.8727,1.8722,1.8728,1.8729,1.8724,1.872,1.8714,1.8714,1.8714,1.8714,0,1.8921,1.8901,1.8905,1.8883,1.8877,1.8883,1.8863,1.8864,1.8848,1.8846,1.8845,1.882,1.8813,1.879,1.8778,1.8766,1.8769,1.8762,1.8774,1.8771,1.8781,1.8779,1.8823,1.8826,1.8782,1.8782,1.8782,0,1.8948,1.8953,1.8931,1.8928,1.892,1.8916,1.8911,1.8887,1.8882,1.8865,1.8867,1.8858,1.8849,1.8837,1.8817,1.8806,1.8796,1.8812,1.8794,1.8799,1.8793,1.8792,1.8791,1.8816,1.8817,1.8817,1.8817,0,1.8997,1.8986,1.898,1.897,1.8965,1.8955,1.8945,1.8944,1.8916,1.8912,1.8903,1.8896,1.8882,1.8872,1.8857,1.8845,1.8825,1.8823,1.8824,1.883,1.8836,1.883,1.8782,1.8822,1.8822,1.8821,1.8821,1.8821,1.9034,1.9036,1.902,1.9013,1.9002,1.8992,1.899,1.8974,1.8967,1.8954,1.894,1.8932,1.8914,1.8892,1.8882,1.8874,1.8864,1.8867,1.8867,1.8867,1.8869,1.8838,1.8871,1.8871,1.8871,1.8871,1.8871,0,1.908,1.9067,1.9061,1.9046,1.904,1.9023,1.9009,1.9005,1.8999,1.8984,1.8975,1.8964,1.8953,1.8931,1.8917,1.8915,1.8906,1.8912,1.8911,1.8908,1.888,1.8879,1.892,1.892,1.892,1.892,1.892,1.892,1.9102,1.9103,1.909,1.9084,1.9071,1.9064,1.9057,1.9046,1.9034,1.9023,1.9013,1.8999,1.8981,1.8965,1.8953,1.8947,1.8942,1.8951,1.8941,1.8915,1.891,1.8906,1.8905,1.895,1.895,1.8969,1.897,1.897]}]]